Location: Miss�
(46.9484°N, 0.1922°W)
Time: 01:54:47
(UTC+00:00)

Cosmos 2218 Rocket - Pass Details

Date: 02 March 2021
Orbit: 955 x 1007 km, 82.9° (Epoch: 12 April)

Event Time Altitude Azimuth Distance (km) Brightness Sun altitude
Rises 20:05:32 0° 188° (S) 3,719 7.0 -24.1°
Reaches altitude 10° 20:08:03 10° 189° (S) 2,775 6.3 -24.5°
Maximum altitude 20:14:28 85° 279° (W) 1,018 4.0 -25.5°
Drops below altitude 10° 20:20:54 10° 8° (N) 2,789 6.5 -26.5°
Sets 20:23:26 0° 9° (N) 3,738 7.2 -27.0°
